This is the latest recevied weather packets stored in our database for station/object N8TWM-13. If no packets are shown the sender has not sent any weather packets the latest 10 day(s).
| Time | Temp. | Humidity | Pressure | Rain* | Wind** | Luminosity | Snow |
|---|---|---|---|---|---|---|---|
| 1788532761 | 25° C | 81% | 1017.2 hPa | 0 mm | - | 651 W/m² | - |
| 1788532457 | 23.89° C | 82% | 1017.6 hPa | 0 mm | - | 268 W/m² | - |
| 1788532175 | 23.89° C | 83% | 1017.7 hPa | 0 mm | - | 502 W/m² | - |
| 1788531849 | 23.33° C | 84% | 1017.9 hPa | 0 mm | - | 423 W/m² | - |
| 1788531543 | 23.33° C | 85% | 1017.8 hPa | 0 mm | - | 290 W/m² | - |
| 1788531239 | 22.78° C | 85% | 1017.6 hPa | 0 mm | - | 209 W/m² | - |
| 1788530935 | 22.78° C | 85% | 1017.5 hPa | 0 mm | - | 144 W/m² | - |
| 1788530644 | 22.78° C | 86% | 1017.6 hPa | 0 mm | - | 125 W/m² | - |
| 1788530329 | 22.78° C | 86% | 1017.9 hPa | 0 mm | - | 87 W/m² | - |
| 1788530024 | 22.78° C | 86% | 1017.9 hPa | 0 mm | - | 78 W/m² | - |
| 1788529720 | 22.78° C | 87% | 1018.5 hPa | 0 mm | - | 12 W/m² | - |
| 1788529420 | 22.78° C | 88% | 1017.4 hPa | 0 mm | - | 53 W/m² | - |
| 1788529114 | 22.78° C | 88% | 1017.5 hPa | 0 mm | - | 78 W/m² | - |
| 1788528810 | 22.78° C | 88% | 1017.5 hPa | 0 mm | - | 69 W/m² | - |
| 1788528509 | 22.78° C | 89% | 1017.1 hPa | 0 mm | - | 78 W/m² | - |
| 1788528205 | 22.78° C | 90% | 1017 hPa | 0 mm | - | 99 W/m² | - |
| 1788527904 | 22.78° C | 90% | 1017.1 hPa | 0 mm | - | 87 W/m² | - |
| 1788527599 | 22.22° C | 90% | 1017.2 hPa | 0 mm | - | 78 W/m² | - |
| 1788527294 | 22.22° C | 91% | 1017.4 hPa | 0 mm | - | 81 W/m² | - |
| 1788526993 | 22.22° C | 91% | 1017.6 hPa | 0 mm | - | 87 W/m² | - |
| 1788526689 | 22.22° C | 91% | 1017.7 hPa | 0 mm | - | 81 W/m² | - |
| 1788526385 | 21.67° C | 92% | 1017.7 hPa | 0 mm | - | 56 W/m² | - |
| 1788526084 | 21.67° C | 92% | 1017.7 hPa | 0 mm | - | 29 W/m² | - |
| 1788525781 | 21.67° C | 92% | 1017.7 hPa | 0 mm | - | 16 W/m² | - |
| 1788525476 | 21.67° C | 92% | 1017.6 hPa | 0 mm | - | 39 W/m² | - |
* Rain latest hour (hover to see other rain measurements)
** Current wind speed in m/s (hover to see current wind gust speed)